Location: Feydey
(46.3431°N, 7.0106°E)
Time: 06:11:40
(UTC+00:00)

Cosmos 2322 Rocket - Visible Passes

Search period start: 26 October 2021 00:00
Search period end: 05 November 2021 00:00
Orbit: 833 x 850 km, 71.0° (Epoch: 25 October)

Date Brightness Start Highest point End Pass type
(mag) Time Alt. Az. Time Alt. Az. Time Alt. Az.
26 Oct 4.1 02:51:36 20° SE 02:51:36 20° SE 02:53:16 10° SE visible
26 Oct 3.9 04:33:33 15° SW 04:33:33 15° SW 04:35:04 10° SW visible
26 Oct 2.1 17:35:41 10° SSW 17:41:17 85° ESE 17:46:57 10° NNE visible
26 Oct 4.5 19:22:00 10° W 19:26:05 20° NW 19:30:11 10° N visible
27 Oct 2.1 17:20:38 10° SSW 17:26:14 81° ESE 17:31:53 10° NNE visible
27 Oct 4.4 19:06:48 10° W 19:10:59 21° NW 19:15:11 10° N visible
28 Oct 2.2 17:05:36 10° SSW 17:11:11 77° ESE 17:16:49 10° NNE visible
28 Oct 4.4 18:51:36 10° W 18:55:53 22° NW 19:00:11 10° N visible
29 Oct 2.2 16:50:33 10° SSW 16:56:08 74° ESE 17:01:46 10° NNE visible
29 Oct 4.3 18:36:25 10° W 18:40:47 23° NW 18:45:10 10° N visible
30 Oct 4.3 18:21:15 10° W 18:25:41 23° NW 18:30:09 10° N visible
31 Oct 4.2 18:06:04 10° W 18:10:36 24° NW 18:15:09 10° N visible
01 Nov 4.2 17:50:54 10° WSW 17:55:29 25° NW 18:00:07 10° N visible
02 Nov 4.1 17:35:44 10° WSW 17:40:24 26° NW 17:45:07 10° N visible
03 Nov 4.0 17:20:34 10° WSW 17:25:18 27° NW 17:30:05 10° N visible
04 Nov 4.0 17:05:25 10° WSW 17:10:13 28° NW 17:15:04 10° N visible
